West Columbia, WV

4:49 AM EST on February 10, 2016 (GMT -0500)
Point Pleasant

Weather History for K3I2 - August, 2013

Change the Weather History Date:

Saturday, August 31, 2013

  Actual Average (KHTS) Record (KHTS)
Temperature  
Mean Temperature 78 °F 73 °F  
Max Temperature 87 °F 84 °F 101 °F (1953)
Min Temperature 68 °F 62 °F 48 °F (1946)
Degree Days  
Heating Degree Days 0 0  
Month to date heating degree days 0  
Since 1 June heating degree days 14  
Since 1 July heating degree days 2  
Cooling Degree Days 12 8  
Month to date cooling degree days 307  
Year to date cooling degree days 977  
Since 1 June cooling degree days 864  
Growing Degree Days 28 (Base 50)    
Moisture  
Dew Point 69 °F    
Average Humidity 83    
Maximum Humidity 100    
Minimum Humidity 52    
Precipitation  
Precipitation 0.00 in 0.11 in 1.73 in (1991)
Month to date precipitation 3.74  
Year to date precipitation 30.25  
Snow  
Snow 0.00 in - - ()
Month to date snowfall  
Since 1 September snowfall  
Snow Depth -    
Sea Level Pressure  
Sea Level Pressure 29.88 in    
Wind  
Wind Speed 2 mph (SW)    
Max Wind Speed 12 mph    
Max Gust Speed 16 mph    
Visibility 7 miles    
Events Rain    
T = Trace of Precipitation, MM = Missing Value Source: NWS Daily Summary

Daily Weather History Graph

Daily Weather History Graph

Search for Another Location

Airport or City:

Trip Planner

Search our weather history database for the weather conditions in past years. The results will help you decide how hot, cold, wet, or windy it might be!

Date:

Astronomy

Aug. 31, 2013 Rise Set
Actual Time 6:56 AM EDT 7:59 PM EDT
Civil Twilight 6:29 AM EDT 8:27 PM EDT
Nautical Twilight 5:56 AM EDT 8:59 PM EDT
Astronomical Twilight 5:22 AM EDT 9:33 PM EDT
Moon 2:25 AM EDT (8/31) 4:56 PM EDT (8/31)
Length of Visible Light 13h 57m
Length of Day
13h 03m
Waning Crescent, 21% of the Moon is Illuminated
Aug 31
Waning Crescent
Sep 5
New
Sep 12
First Quarter
Sep 19
Full
Sep 26
Last Quarter

Hourly Weather History & Observations

Time (EDT) Temp. Heat Index Dew Point Humidity Pressure Visibility Wind Dir Wind Speed Gust Speed Precip Events Conditions
12:15 AM 69.8 °F - 68.0 °F 94% 29.90 in 5.0 mi Calm Calm - N/A   Clear
12:35 AM 69.8 °F - 68.0 °F 94% 29.89 in 5.0 mi Calm Calm - N/A   Clear
12:55 AM 69.8 °F - 68.0 °F 94% 29.89 in 4.0 mi Calm Calm - N/A   Clear
1:15 AM 69.8 °F - 68.0 °F 94% 29.89 in 4.0 mi Calm Calm - N/A   Clear
1:35 AM 69.8 °F - 68.0 °F 94% 29.89 in 5.0 mi Calm Calm - N/A   Clear
1:55 AM 69.8 °F - 68.0 °F 94% 29.88 in 4.0 mi Calm Calm - N/A   Clear
2:15 AM 68.0 °F - 68.0 °F 100% 29.89 in 4.0 mi Calm Calm - N/A   Clear
2:35 AM 68.0 °F - 66.2 °F 94% 29.89 in 5.0 mi Calm Calm - N/A   Clear
2:55 AM 68.0 °F - 66.2 °F 94% 29.89 in 5.0 mi Calm Calm - N/A   Clear
3:15 AM 68.0 °F - 66.2 °F 94% 29.89 in 5.0 mi Calm Calm - N/A   Clear
3:35 AM 68.0 °F - 66.2 °F 94% 29.89 in 4.0 mi Calm Calm - N/A   Clear
3:55 AM 68.0 °F - 66.2 °F 94% 29.89 in 5.0 mi Calm Calm - N/A   Clear
4:15 AM 68.0 °F - 66.2 °F 94% 29.87 in 5.0 mi Calm Calm - N/A   Clear
4:35 AM 68.0 °F - 66.2 °F 94% 29.86 in 5.0 mi Calm Calm - N/A   Clear
4:55 AM 68.0 °F - 66.2 °F 94% 29.86 in 5.0 mi Calm Calm - N/A   Clear
5:15 AM 68.0 °F - 64.4 °F 88% 29.86 in 7.0 mi Calm Calm - N/A   Clear
5:35 AM 68.0 °F - 66.2 °F 94% 29.87 in 5.0 mi Calm Calm - N/A   Clear
5:55 AM 68.0 °F - 66.2 °F 94% 29.88 in 5.0 mi Calm Calm - N/A   Mostly Cloudy
6:15 AM 68.0 °F - 66.2 °F 94% 29.87 in 7.0 mi Calm Calm - N/A   Mostly Cloudy
6:35 AM 69.8 °F - 68.0 °F 94% 29.89 in 5.0 mi Calm Calm - N/A   Scattered Clouds
6:55 AM 69.8 °F - 68.0 °F 94% 29.89 in 4.0 mi Calm Calm - N/A   Scattered Clouds
7:15 AM 69.8 °F - 68.0 °F 94% 29.90 in 4.0 mi Calm Calm - N/A   Mostly Cloudy
7:35 AM 71.6 °F - 69.8 °F 94% 29.95 in 2.0 mi NNE 9.2 mph - N/A Rain Heavy Rain
7:55 AM 71.6 °F - 69.8 °F 94% 29.93 in 5.0 mi ENE 8.1 mph - N/A Rain Light Rain
8:15 AM 71.6 °F - 69.8 °F 94% 29.93 in 2.0 mi East 6.9 mph - N/A Rain Heavy Rain
8:35 AM 71.6 °F - 69.8 °F 94% 29.91 in 2.5 mi East 9.2 mph - N/A Rain Rain
8:55 AM 71.6 °F - 68.0 °F 88% 29.90 in 3.0 mi SSE 8.1 mph - N/A Rain Rain
9:15 AM 71.6 °F - 68.0 °F 88% 29.91 in 4.0 mi Calm Calm - N/A Rain Rain
9:35 AM 69.8 °F - 69.8 °F 100% 29.94 in 5.0 mi WSW 3.5 mph - N/A Rain Light Rain
9:55 AM 71.6 °F - 69.8 °F 94% 29.92 in 3.0 mi South 4.6 mph - N/A Rain Light Rain
10:15 AM 71.6 °F - 69.8 °F 94% 29.92 in 4.0 mi South 3.5 mph - N/A Rain Rain
10:35 AM 71.6 °F - 69.8 °F 94% 29.90 in 5.0 mi South 3.5 mph - N/A Rain Light Rain
10:55 AM 71.6 °F - 69.8 °F 94% 29.90 in 5.0 mi WNW 3.5 mph - N/A   Scattered Clouds
11:15 AM 71.6 °F - 69.8 °F 94% 29.90 in 4.0 mi Calm Calm - N/A   Clear
11:35 AM 71.6 °F - 71.6 °F 100% 29.92 in 5.0 mi Calm Calm - N/A   Clear
11:55 AM 73.4 °F - 69.8 °F 88% 29.93 in 7.0 mi Calm Calm - N/A   Scattered Clouds
12:15 PM 73.4 °F - 71.6 °F 94% 29.93 in 7.0 mi Calm Calm - N/A   Scattered Clouds
12:35 PM 77.0 °F - 71.6 °F 83% 29.92 in 7.0 mi Calm Calm - N/A   Scattered Clouds
12:55 PM 78.8 °F - 71.6 °F 78% 29.92 in 7.0 mi SW 5.8 mph - N/A   Scattered Clouds
1:15 PM 80.6 °F 84.6 °F 71.6 °F 74% 29.91 in 10.0 mi WSW 8.1 mph - N/A   Scattered Clouds
1:35 PM 82.4 °F 86.3 °F 69.8 °F 66% 29.91 in 10.0 mi WSW 11.5 mph 16.1 mph N/A   Clear
1:55 PM 84.2 °F 88.4 °F 69.8 °F 62% 29.90 in 10.0 mi WSW 10.4 mph - N/A   Clear
2:15 PM 86.0 °F 90.4 °F 69.8 °F 58% 29.90 in 10.0 mi WSW 6.9 mph - N/A   Clear
2:35 PM 87.8 °F 91.4 °F 68.0 °F 52% 29.89 in 10.0 mi WSW 9.2 mph - N/A   Clear
2:55 PM 87.8 °F 92.6 °F 69.8 °F 55% 29.87 in 10.0 mi SW 9.2 mph - N/A   Clear
3:15 PM 87.8 °F 92.6 °F 69.8 °F 55% 29.87 in 10.0 mi WSW 8.1 mph - N/A   Clear
3:35 PM 87.8 °F 92.6 °F 69.8 °F 55% 29.87 in 10.0 mi WSW 6.9 mph - N/A   Clear
3:55 PM 87.8 °F 92.6 °F 69.8 °F 55% 29.85 in 10.0 mi WSW 6.9 mph - N/A   Clear
4:15 PM 87.8 °F 91.4 °F 68.0 °F 52% 29.84 in 10.0 mi WSW 9.2 mph - N/A   Clear
4:35 PM 87.8 °F 91.4 °F 68.0 °F 52% 29.84 in 10.0 mi WSW 4.6 mph - N/A   Clear
4:55 PM 87.8 °F 91.4 °F 68.0 °F 52% 29.83 in 10.0 mi WSW 5.8 mph - N/A   Clear
5:15 PM 86.0 °F 89.4 °F 68.0 °F 55% 29.82 in 10.0 mi West 3.5 mph - N/A   Mostly Cloudy
5:35 PM 86.0 °F 89.4 °F 68.0 °F 55% 29.81 in 10.0 mi Calm Calm - N/A   Overcast
5:55 PM 84.2 °F 89.6 °F 71.6 °F 66% 29.83 in 10.0 mi WNW 3.5 mph - N/A   Overcast
6:15 PM 82.4 °F 87.2 °F 71.6 °F 70% 29.83 in 10.0 mi Calm Calm - N/A   Overcast
6:35 PM 82.4 °F 88.2 °F 73.4 °F 74% 29.85 in 10.0 mi Calm Calm - N/A   Overcast
6:55 PM 78.8 °F - 73.4 °F 83% 29.86 in 10.0 mi Calm Calm - N/A   Overcast
7:15 PM 78.8 °F - 71.6 °F 78% 29.86 in 10.0 mi Calm Calm - N/A   Overcast
7:35 PM 78.8 °F - 73.4 °F 83% 29.87 in 10.0 mi Calm Calm - N/A   Mostly Cloudy
7:55 PM 77.0 °F - 71.6 °F 83% 29.86 in 10.0 mi Calm Calm - N/A   Mostly Cloudy
8:15 PM 77.0 °F - 71.6 °F 83% 29.86 in 10.0 mi SSW 4.6 mph - N/A   Scattered Clouds
8:35 PM 77.0 °F - 69.8 °F 78% 29.87 in 10.0 mi Calm Calm - N/A   Scattered Clouds
8:55 PM 77.0 °F - 69.8 °F 78% 29.88 in 10.0 mi Calm Calm - N/A   Overcast
9:15 PM 77.0 °F - 69.8 °F 78% 29.89 in 10.0 mi SSW 5.8 mph - N/A   Overcast
9:35 PM 77.0 °F - 71.6 °F 83% 29.89 in 10.0 mi SW 6.9 mph - N/A   Overcast
9:55 PM 77.0 °F - 71.6 °F 83% 29.87 in 10.0 mi South 5.8 mph - N/A   Mostly Cloudy
10:15 PM 77.0 °F - 71.6 °F 83% 29.87 in 10.0 mi SW 3.5 mph - N/A   Mostly Cloudy
10:35 PM 75.2 °F - 69.8 °F 83% 29.87 in 10.0 mi Calm Calm - N/A   Scattered Clouds
10:55 PM 75.2 °F - 69.8 °F 83% 29.85 in 10.0 mi SSW 3.5 mph - N/A   Clear
11:15 PM 75.2 °F - 69.8 °F 83% 29.85 in 10.0 mi Calm Calm - N/A   Scattered Clouds
11:35 PM 75.2 °F - 69.8 °F 83% 29.87 in 10.0 mi SW 6.9 mph - N/A   Mostly Cloudy
11:55 PM 73.4 °F - 69.8 °F 88% 29.87 in 10.0 mi Calm Calm - N/A   Mostly Cloudy